logo
Games tagged Alternate History
# Game Release date
Price
Score rank
(Userscore / Metascore)
Owners
Players
Playtime (Median)
Developer(s)
Publisher(s)
1 BioShock Aug 21, 2007 $19.99N/A (N/A/96%)2,000,000 .. 5,000,0000%00:00 (00:00)2K Boston, 2K Australia2K
2 BioShock Infinite Mar 25, 2013 $29.99N/A (N/A/94%)2,000,000 .. 5,000,0002.49%01:24 (02:06)Irrational Games, Virtual Programming (Linux)2K
3 Unity of Command II Nov 12, 2019 $29.99N/A (N/A/88%)0 .. 20,000NAN%00:00 (00:00)2x2 Games, Croteam2x2 Games
4 Return to Castle Wolfenstein Nov 20, 2001 $4.99N/A (N/A/88%)200,000 .. 500,0000%00:00 (00:00)Gray Matter StudiosBethesda-Softworks
5 SUNLESS SKIES Jan 31, 2019 $24.99N/A (N/A/87%)100,000 .. 200,0000%00:00 (00:00)Failbetter GamesFailbetter Games
6 Assassin's Creed 2 Deluxe Edition Mar 9, 2010 $19.99N/A (N/A/86%)1,000,000 .. 2,000,0001.67%00:29 (00:09)Ubisoft MontrealUbisoft
7 Wolfenstein II: The New Colossus Oct 26, 2017 $39.99N/A (N/A/86%)1,000,000 .. 2,000,0000%00:00 (00:00)Machine GamesBethesda Softworks
8 Silent Storm Gold Edition Sep 9, 2004 $9.99N/A (N/A/83%)200,000 .. 500,0000%00:00 (00:00)NivalTHQ Nordic
9 Europa Universalis III Complete Jan 23, 2007 $14.99N/A (N/A/83%)200,000 .. 500,0000%00:00 (00:00)Paradox Development StudioParadox Interactive
10 Hearts of Iron IV Jun 6, 2016 $39.99N/A (N/A/83%)2,000,000 .. 5,000,00024%18:26 (12:59)Paradox Development StudioParadox Interactive
11 Hypnospace Outlaw Mar 12, 2019 $19.99N/A (N/A/82%)50,000 .. 100,000NAN%00:00 (00:00)Tendershoot, Michael Lasch, ThatWhichIs MediaNo More Robots
12 Command & Conquer: Red Alert 3 Oct 28, 2008 $19.99N/A (N/A/82%)500,000 .. 1,000,0002.63%02:33 (00:51)EA Los AngelesElectronic Arts
13 Wargame: European Escalation Feb 22, 2012 $9.99N/A (N/A/81%)500,000 .. 1,000,0000%00:00 (00:00)Eugen SystemsEugen Systems
14 Jamestown Jun 8, 2011 $9.99N/A (N/A/81%)500,000 .. 1,000,0000%00:00 (00:00)Final Form GamesFinal Form Games
15 Wolfenstein: The New Order May 19, 2014 $19.99N/A (N/A/81%)1,000,000 .. 2,000,0002.25%00:34 (00:22)Machine GamesBethesda-Soft
16 Irony Curtain: From Matryoshka with Love May 16, 2019 $19.99N/A (N/A/81%)0 .. 20,000NAN%00:00 (00:00)Artifex MundiArtifex Mundi
17 The Age of Decadence Oct 14, 2015 $14.99N/A (N/A/81%)100,000 .. 200,0000%00:00 (00:00)Iron Tower StudioIron Tower Studio
18 Assassin’s Creed III Nov 20, 2012 N/AN/A (N/A/80%)1,000,000 .. 2,000,0002.17%00:41 (00:13)Ubisoft MontrealUbisoft
19 Wargame: Airland Battle May 29, 2013 $19.99N/A (N/A/80%)200,000 .. 500,0000%00:00 (00:00)Eugen SystemsEugen Systems
20 BioShock Remastered Sep 15, 2016 $19.99N/A (N/A/80%)1,000,000 .. 2,000,0000.59%00:07 (00:02)2K Boston, 2K Australia, Blind Squirrel, Feral Interactive (Mac)2K, Feral Interactive (Mac)
21 Wargame: Red Dragon Apr 17, 2014 $29.99N/A (N/A/78%)500,000 .. 1,000,0000%00:00 (00:00)Eugen SystemsEugen Systems
22 Hearts of Iron III Aug 7, 2009 $9.99N/A (N/A/77%)500,000 .. 1,000,0000%00:00 (00:00)Paradox Development StudioParadox Interactive
23 Herald: An Interactive Period Drama - Book I & II Feb 22, 2017 $9.99N/A (N/A/77%)0 .. 20,000NAN%00:00 (00:00)WispfireWispfire
24 Singularity Jun 30, 2010 $29.99N/A (N/A/76%)100,000 .. 200,0000%00:00 (00:00)Raven SoftwareActivision
25 Wolfenstein: The Old Blood May 4, 2015 $19.99N/A (N/A/76%)500,000 .. 1,000,0000%00:00 (00:00)MachineGamesBethesda Softworks
26 Victoria II Aug 30, 2010 $19.99N/A (N/A/75%)500,000 .. 1,000,0000%00:00 (00:00)Paradox Development StudioParadox Interactive
27 Kenshi Dec 6, 2018 $29.99N/A (N/A/75%)500,000 .. 1,000,0003.45%00:06 (00:02)Lo-Fi GamesLo-Fi Games
28 Battlezone 98 Redux Apr 18, 2016 $19.99N/A (N/A/75%)20,000 .. 50,000NAN%00:00 (00:00)Big Boat InteractiveRebellion
29 Battlestations Pacific May 12, 2009 $8.99N/A (N/A/74%)200,000 .. 500,0000%00:00 (00:00)Eidos Studio HungarySquare Enix
30 Phantom Doctrine Aug 14, 2018 $39.99N/A (N/A/73%)100,000 .. 200,0000%00:00 (00:00)CreativeForge GamesGood Shepherd Entertainment
31 Blues and Bullets Jul 23, 2015 $4.99N/A (N/A/73%)50,000 .. 100,0000%00:00 (00:00)A Crowd of MonstersA Crowd of Monsters
32 Lamplight City Sep 13, 2018 $14.99N/A (N/A/72%)20,000 .. 50,000NAN%00:00 (00:00)Grundislav GamesApplication Systems Heidelberg
33 All Walls Must Fall - A Tech-Noir Tactics Game Feb 23, 2018 $9.99N/A (N/A/72%)0 .. 20,0000%00:00 (00:00)inbetweengamesinbetweengames
34 TimeShift Oct 30, 2007 $19.99N/A (N/A/71%)100,000 .. 200,0000%00:00 (00:00)Saber InteractiveActivision
35 Not Tonight Aug 17, 2018 $19.99N/A (N/A/71%)20,000 .. 50,0000%00:00 (00:00)PanicBarnNo More Robots
36 Gladiator: Sword of Vengeance Nov 5, 2003 $3.99N/A (N/A/69%)0 .. 20,000NAN%00:00 (00:00)Throwback EntertainmentThrowback Entertainment
37 Iron Storm Oct 25, 2002 $2.99N/A (N/A/69%)20,000 .. 50,0000%00:00 (00:00)MicroidsMicroids
38 Moons of Madness Oct 22, 2019 $24.99N/A (N/A/69%)20,000 .. 50,0000%00:00 (00:00)Rock Pocket GamesFuncom
39 Wolfenstein: Youngblood Jul 25, 2019 $29.99N/A (N/A/69%)200,000 .. 500,0000%00:00 (00:00)Machine Games, Arkane StudiosBethesda Softworks
40 The Church in the Darkness Aug 2, 2019 $19.99N/A (N/A/65%)0 .. 20,000NAN%00:00 (00:00)Paranoid ProductionsFellow Traveller
41 Command & Conquer: Red Alert 3 - Uprising Mar 12, 2009 $19.99N/A (N/A/64%)500,000 .. 1,000,0000%00:00 (00:00)EA Los AngelesElectronic Arts
42 NecroVision May 20, 2009 $4.99N/A (N/A/63%)100,000 .. 200,0000%00:00 (00:00)The Farm 511C Entertainment
43 The Descendant Mar 24, 2016 $14.99N/A (N/A/59%)200,000 .. 500,0000.47%98:08 (32:42)Gaming Corps ABMicroids Indie, Microids
44 EMPYRE: Lords of the Sea Gates Oct 4, 2017 $29.99N/A (N/A/56%)0 .. 20,000NAN%00:00 (00:00)Coin Operated GamesCoin Operated Games, Work Shift Play Inc.
45 Bohemian Killing Jul 21, 2016 $12.99N/A (N/A/55%)0 .. 20,0000%00:00 (00:00)The MoonwallsLibredia Entertainment
46 Wolfenstein: Cyberpilot Jul 25, 2019 $19.99N/A (N/A/54%)0 .. 20,000NAN%00:00 (00:00)Arkane Studios, Machine GamesBethesda Softworks
47 Dino D-Day Apr 8, 2011 $9.99N/A (N/A/53%)1,000,000 .. 2,000,0000%00:00 (00:00)800 North and Digital Ranch800 North and Digital Ranch
48 Darkest of Days Sep 2009 $19.99N/A (N/A/51%)0 .. 20,000NAN%00:00 (00:00)8monkey LabsPhantom EFX
49 Blood Bond - Into the Shroud Feb 27, 2019 $24.99N/A (N/A)0 .. 20,000NAN%00:00 (00:00)W.R.K.S GamesW.R.K.S Games
50 Death Trader: Cold War Oct 19, 2018 $14.99N/A (N/A)0 .. 20,000NAN%00:00 (00:00)DreambakersDreambakers
51 Rogue Reaper Feb 1, 2019 FreeN/A (N/A)50,000 .. 100,000NAN%00:00 (00:00)Fireroot StudiosFireroot Studios
52 The Great Fantasy Struggle Sep 26, 2018 $4.99N/A (N/A)0 .. 20,000NAN%00:00 (00:00)Alina DigitalAlina Digital
53 Age of Viking Conquest Sep 19, 2018 $4.99N/A (N/A)0 .. 20,000NAN%00:00 (00:00)Nemoïd AppsArgonauts Interactive
54 Corrupt The Priest Dec 14, 2018 $3.99N/A (N/A)0 .. 20,000NAN%00:00 (00:00)DreambakersDreambakers
55 Evil Bank Manager Dec 7, 2018 $11.99N/A (N/A)20,000 .. 50,0000%00:00 (00:00)Hamsters GamingHamsters Gaming
56 Precipice May 1, 2019 $7.99N/A (N/A)0 .. 20,000NAN%00:00 (00:00)LRDGames, Inc.LRDGames, Inc.
57 Age of Civilizations II Nov 21, 2018 $4.99N/A (N/A)200,000 .. 500,00014.29%00:11 (00:03)Łukasz JakowskiŁukasz Jakowski Games
58 Ymir Mar 16, 2019 $34.99N/A (N/A)20,000 .. 50,000NAN%00:00 (00:00)Thibaud MichaudThibaud Michaud
59 Tombeaux Nov 5, 2018 $1.24N/A (N/A)0 .. 20,000NAN%00:00 (00:00)Dave BeckDave Beck
60 Headliner: NoviNews Oct 23, 2018 $13.99N/A (N/A)20,000 .. 50,000NAN%00:00 (00:00)Unbound CreationsUnbound Creations
61 World War Zero Dec 3, 2019 $4.99N/A (N/A)0 .. 20,000NAN%00:00 (00:00)RebellionRebellion
62 BEARS, VODKA, BALALAIKA! Nov 6, 2019 $1.99N/A (N/A)20,000 .. 50,000NAN%00:00 (00:00)Rabotiagi gamesRabotiagi games
63 Iron Harvest Sep 1, 2020 N/AN/A (N/A)0 .. 20,0000%00:00 (00:00)KING ArtDeep Silver
64 BDSM: Big Drunk Satanic Massacre Oct 10, 2019 $19.99N/A (N/A)20,000 .. 50,000NAN%00:00 (00:00)Big Way GamesBig Way Games
65 Caffeine: Victoria's Legacy Mar 20, 2020 $15.99N/A (N/A)0 .. 20,000NAN%00:00 (00:00)Kikai DigitalKikai Digital
66 Pendula Swing - The Complete Journey Mar 8, 2020 $16.99N/A (N/A)0 .. 20,000NAN%00:00 (00:00)Valiant Game Studio ABValiant Game Studio AB
67 Singularity: Tactics Arena Dec 17, 2019 $9.99N/A (N/A)0 .. 20,000NAN%00:00 (00:00)A Memory of Eternity LLCA Memory of Eternity LLC
68 Aurora - Hidden Colors Dec 13, 2019 $3.99N/A (N/A)0 .. 20,000NAN%00:00 (00:00)Aurora - Mídia & GamesAurora - Mídia & Games
69 Panzer Hearts - War Visual Novel Apr 25, 2018 FreeN/A (N/A)0 .. 20,000NAN%00:00 (00:00)HELYEESHELYEES
70 Imperialism: Fate of India Aug 10, 2018 $14.99N/A (N/A)0 .. 20,000NAN%00:00 (00:00)GamenesisGamenesis
71 Steampunk Tower 2 Apr 19, 2018 $7.99N/A (N/A)20,000 .. 50,0000%00:00 (00:00)DreamGateDreamGate
72 Intelligence Trader Aug 3, 2018 $9.99N/A (N/A)0 .. 20,000NAN%00:00 (00:00)DreambakersDreambakers
73 Long Gone Days Mar 28, 2018 $14.99N/A (N/A)0 .. 20,0000%00:00 (00:00)BURABURA
74 End War RTS Jul 31, 2018 $4.99N/A (N/A)0 .. 20,000NAN%00:00 (00:00)AuroraAurora
75 Ostalgie: The Berlin Wall Mar 25, 2018 $2.39N/A (N/A)20,000 .. 50,0000%00:00 (00:00)KremlingamesKremlingames
76 Aces of the Luftwaffe - Squadron Jul 24, 2018 $7.49N/A (N/A)0 .. 20,000NAN%00:00 (00:00)HandyGamesHandyGames
77 Scythe: Digital Edition Sep 5, 2018 $9.99N/A (N/A)50,000 .. 100,00025%02:20 (01:10)The Knights of UnityAsmodee Digital
78 Because We're Here - Act I Jul 19, 2018 $5.99N/A (N/A)0 .. 20,000NAN%00:00 (00:00)Studio ElfriedeStudio Elfriede
79 Age of Gladiators II: Rome Aug 21, 2018 $19.99N/A (N/A)0 .. 20,000NAN%00:00 (00:00)Creative Storm EntertainmentCreative Storm Entertainment
80 Shadow Council: The Puppeteers Jun 21, 2018 $14.99N/A (N/A)0 .. 20,000NAN%00:00 (00:00)DreambakersDreambakers
81 Chronicles of Vinland May 23, 2018 $19.99N/A (N/A)0 .. 20,0000%00:00 (00:00)Wonderbox GamesWonderbox Games
82 Pendula Swing Episode 1 - Tired and Retired Aug 15, 2018 FreeN/A (N/A)0 .. 20,000NAN%00:00 (00:00)Valiant Game Studio ABValiant Game Studio AB
83 Third Front: WWII May 11, 2018 $7.99N/A (N/A)20,000 .. 50,000NAN%00:00 (00:00)Hamsters GamingHamsters Gaming
84 Taste of Power Oct 10, 2019 $7.49N/A (N/A)0 .. 20,000NAN%00:00 (00:00)OneOcean LLCOneOcean LLC
85 HEIST Sep 27, 2019 $18.99N/A (N/A)0 .. 20,000NAN%00:00 (00:00)Atomizer GamesAtomizer Games
86 I Love You, Colonel Sanders! A Finger Lickin’ Good Dating Simulator Sep 24, 2019 FreeN/A (N/A)200,000 .. 500,000NAN%00:00 (00:00)PsyopKFC
87 PAWARUMI Jan 30, 2018 $14.99N/A (N/A)0 .. 20,000NAN%00:00 (00:00)Manufacture 43Manufacture 43
88 Supreme Ruler The Great War Aug 1, 2017 $19.99N/A (N/A)0 .. 20,000NAN%00:00 (00:00)BattleGoat StudiosBattleGoat Studios
89 Project First Contact Jul 26, 2017 $2.99N/A (N/A)20,000 .. 50,00014.29%03:40 (01:13)Cristian Manolachi, Atomic FabrikCristian Manolachi, Atomic Fabrik
90 Call of War: World War 2 Oct 21, 2017 FreeN/A (N/A)200,000 .. 500,00014.29%05:58 (03:53)Bytro Labs GmbHBytro Labs GmbH
91 Tragedy of Prince Rupert Jul 26, 2017 $0.59N/A (N/A)0 .. 20,000NAN%00:00 (00:00)SpytihněvSpytihněv
92 Boom Island Oct 16, 2017 $0.99N/A (N/A)0 .. 20,000NAN%00:00 (00:00)Caden Goodwincsgood
93 IKEA VR Pancake Kitchen May 30, 2017 FreeN/A (N/A)100,000 .. 200,0000%00:00 (00:00)IKEA Communications ABIKEA Communications AB
94 Arms Race - TCWE Oct 5, 2017 $14.99N/A (N/A)0 .. 20,000NAN%00:00 (00:00)Alina DigitalAlina Digital
95 Cruz Brothers Mar 13, 2018 $9.99N/A (N/A)0 .. 20,000100%00:01 (00:01)DCF StudiosDCF Studios
96 CONFLICT OF NATIONS: WORLD WAR 3 Mar 15, 2018 FreeN/A (N/A)100,000 .. 200,0000%00:00 (00:00)Dorado GamesDorado Games
97 Darkarta: A Broken Heart's Quest Standard Edition Aug 28, 2017 $5.99N/A (N/A)0 .. 20,000NAN%00:00 (00:00)Tuttifrutti InteractiveTuttifrutti Interactive
98 a Museum of Dubious Splendors Mar 6, 2018 FreeN/A (N/A)0 .. 20,0000%00:00 (00:00)Studio OleomingusThe Irregular Corporation
99 Strategy & Tactics: Dark Ages Aug 4, 2017 $14.99N/A (N/A)50,000 .. 100,0000%00:00 (00:00)HeroCraftHeroCraft
100 Anti Zombie AI - Tower Defense (Azai - TD) Aug 4, 2017 $1.99N/A (N/A)0 .. 20,000NAN%00:00 (00:00)PodShoh StudioPodShoh Studio
101 Greenwood the Last Ritual Jan 19, 2017 $2.99N/A (N/A)100,000 .. 200,0000%00:00 (00:00)AO2GameAO2Game
102 FreeHolder Jul 5, 2016 $9.99N/A (N/A)0 .. 20,0000%00:00 (00:00)RogueWareRogueWare
103 Disgraced Jun 20, 2016 $8.99N/A (N/A)0 .. 20,000NAN%00:00 (00:00)Corrosive Studios LLCCorrosive Studios LLC
104 The Temporal Invasion Jul 4, 2016 $6.99N/A (N/A)20,000 .. 50,0000%00:00 (00:00)Hybriona LabsHybriona Labs
105 Lost in Secular Love Oct 28, 2016 $9.99N/A (N/A)0 .. 20,000NAN%00:00 (00:00)YETU GAMEYETU GAME
106 Dino Eggs: Rebirth Jun 8, 2016 $9.99N/A (N/A)0 .. 20,000NAN%00:00 (00:00)David H Schroeder, Eric FerrotDavid H Schroeder
107 BioShock 2 Remastered Sep 15, 2016 $19.99N/A (N/A)500,000 .. 1,000,0000%00:00 (00:00)2K Marin, 2K China, Digital Extremes, 2K Australia, Blind Squirrel2K
108 Interkosmos Apr 25, 2017 $4.99N/A (N/A)0 .. 20,000NAN%00:00 (00:00)Ovid WorksOvid Works
109 The Cold War Era Sep 9, 2016 $4.99N/A (N/A)0 .. 20,000NAN%00:00 (00:00)Alina DigitalAlina Digital
110 Crisis in the Kremlin Mar 20, 2017 $1.99N/A (N/A)100,000 .. 200,0000%00:00 (00:00)KremlingamesKremlingames
111 PRINCIPIA: Master of Science Sep 9, 2016 $9.99N/A (N/A)0 .. 20,0000%00:00 (00:00)tomeappPLAYISM
112 Darkarta: A Broken Heart's Quest Collector's Edition Mar 8, 2017 $5.99N/A (N/A)20,000 .. 50,0000%00:00 (00:00)Tuttifrutti InteractiveTuttifrutti Interactive
113 Steam Squad Jul 28, 2016 $17.99N/A (N/A)20,000 .. 50,000NAN%00:00 (00:00)Bretwalda GamesBretwalda Games
114 局外人 L'Etranger Jul 17, 2019 FreeN/A (N/A)0 .. 20,000NAN%00:00 (00:00)Class-2Class-2
115 TUTUTUTU - Tea party Aug 14, 2019 $1.59N/A (N/A)0 .. 20,000NAN%00:00 (00:00)Marginal actMarginal act
116 Supremacy 1914: World War 1 Jul 16, 2019 FreeN/A (N/A)100,000 .. 200,000NAN%00:00 (00:00)Bytro Labs GmbHBytro Labs GmbH
117 Master Of Secrets: Dark Europe Jun 25, 2019 $3.99N/A (N/A)0 .. 20,000NAN%00:00 (00:00)Paradox BagParadox Bag
118 Saboteur II: Avenging Angel Aug 2, 2019 $7.99N/A (N/A)0 .. 20,000NAN%00:00 (00:00)SimFabric, Clive TownsendSimFabric
119 Generals & Rulers May 31, 2019 $11.99N/A (N/A)0 .. 20,0000%00:00 (00:00)Hamsters GamingHamsters Gaming
120 Bloody Chronicles - New Cycle of Death Visual Novel Aug 1, 2019 $24.99N/A (N/A)0 .. 20,000NAN%00:00 (00:00)Igrasil Development TeamIgrasil Studio
121 China: Mao's legacy May 24, 2019 $3.84N/A (N/A)20,000 .. 50,0000%00:00 (00:00)KremlingamesKremlingames
122 Rick Rack Jul 31, 2019 $8.99N/A (N/A)0 .. 20,000NAN%00:00 (00:00)IronVishwaKarma
123 In the beginning Sep 7, 2019 $9.99N/A (N/A)0 .. 20,000NAN%00:00 (00:00)Solare GamesSolare Games
124 Last Day of Rome Sep 6, 2019 $11.99N/A (N/A)0 .. 20,000NAN%00:00 (00:00)Hamsters GamingHamsters Gaming
125 macdows 95 Sep 5, 2019 $4.99N/A (N/A)0 .. 20,000NAN%00:00 (00:00)Yunus AyyildizYunus Ayyildiz
126 KILL la KILL -IF Jul 25, 2019 $19.99N/A (N/A)0 .. 20,000NAN%00:00 (00:00)Arc System Works, APLUS Co., Ltd.Arc System Works
127 Overpass Aug 15, 2019 $14.99N/A (N/A)0 .. 20,000NAN%00:00 (00:00)Studio BeanStudio Bean
128 Karaski: What Goes Up... Mar 2, 2016 $11.99N/A (N/A)0 .. 20,0000%00:00 (00:00)Unbound CreationsPlug In Digital
129 Deadlands Noir - That Old Time Religion Jul 3, 2015 $1.99N/A (N/A)0 .. 20,0000%00:00 (00:00)SmiteWorks USA, LLCSmiteWorks USA, LLC
130 Age of Gladiators Feb 25, 2016 $9.99N/A (N/A)50,000 .. 100,0000%00:00 (00:00)Creative Storm EntertainmentCreative Storm Entertainment
131 Super 3-D Noah's Ark Jan 1, 1995 $4.99N/A (N/A)50,000 .. 100,0000%00:00 (00:00)Wisdom Tree, Inc.Piko Interactive LLC, Classics Digital
132 Turnover Dec 15, 2015 $4.99N/A (N/A)0 .. 20,000NAN%00:00 (00:00)Long Division LLCLong Division LLC
133 Supreme Ruler Ultimate Oct 17, 2014 $19.99N/A (N/A)50,000 .. 100,0000%00:00 (00:00)BattleGoat StudiosBattleGoat Studios
134 Hegemony III: Clash of the Ancients Aug 25, 2015 $29.99N/A (N/A)20,000 .. 50,000NAN%00:00 (00:00)Longbow GamesLongbow Games
135 Pharaonic Apr 28, 2016 $14.99N/A (N/A)0 .. 20,0000%00:00 (00:00)Milkstone StudiosMilkstone Studios
136 I Shall Remain Aug 24, 2015 $9.99N/A (N/A)20,000 .. 50,0000%00:00 (00:00)Scorpius GamesScorpius Games
137 Strategy & Tactics: Wargame Collection Apr 22, 2016 $9.99N/A (N/A)20,000 .. 50,0000%00:00 (00:00)HeroCraftHeroCraft
138 Dark Storm: VR Missions Aug 19, 2015 N/AN/A (N/A)0 .. 20,000NAN%00:00 (00:00)Fenrir StudiosFenrir Studios
139 Colonial Conquest Jul 28, 2015 $9.99N/A (N/A)20,000 .. 50,0000%00:00 (00:00)Argonauts Interactive, Collectif NemoïdPlug In Digital, Argonauts Interactive
Overview

Alternate History

Games with this tag: 139
Average userscore: N/A%
Average metascore: 74.88%
Average playtime: 09:37
Total copies owned: 34,475,000
Average price: $13.66
Help

Owners: Estimated number of people owning this game. The number might be way too small for new releases and sometimes way too big for games that had free weekend event recently. Read more on About page.

Playtime: Average hours played in total per person that have actually launched this game since March 2009. This time is calculated for the whole lifetime, not for the particular year.

Average score: Average users and metacritic score for all games with this score assigned.

Average playtime: Average lifetime playtime for all games where this data is available.

Games in this genre: Self-explaining - number of games with this tag. Only inculdes games with sales data available.

Total copies owned: Refers to total copies of games with this tag acquired by users for the lifetime. Includes copies sold, downloaded for free and given out.

This number might be too small for recently released games or too big for games that had a free weekend in the last couple of months.

Graphs

Login required.

Please register or log in to see this information.

Login required.

Please register or log in to see this information.